Location: Ku?niki
(51.4449°N, 17.8974°E)
Time: 03:55:54
(UTC+00:00)

NOSS 3-2 (A) - Pass Details

Date: 18 September 2020
Orbit: 795 x 1413 km, 63.4° (Epoch: 02 October)

Event Time Altitude Azimuth Distance (km) Brightness Sun altitude
Rises 18:09:54 0° 314° (NW) 3,871 7.9 -12.3°
Reaches altitude 10° 18:12:24 10° 315° (NW) 2,996 7.1 -12.6°
Maximum altitude 18:19:43 83° 45° (NE) 1,257 4.0 -13.7°
Enters shadow 18:26:32 17° 132° (SE) 2,885 5.4 -14.7°
